| time (UTC) | temp F | wind direction | speed MPH | gust MPH | rain 1hr in | rain 24hr in | rain mn in | humidity % | barometer mb |
| 20260507161447 | 52 | 205 | 0.0 | 0.0 | 0.00 | 0.00 | 0.00 | 79 | 1016.1 |
| 20260507161100 | 52 | 206 | 0.0 | 1.0 | 0.00 | 0.00 | 0.00 | 79 | 1016.0 |
| 20260507160427 | 52 | 206 | 1.0 | 1.0 | 0.00 | 0.00 | 0.00 | 79 | 1016.0 |
| 20260507155920 | 53 | 196 | 1.0 | 1.0 | 0.00 | 0.00 | 0.00 | 79 | 1016.0 |
| 20260507155445 | 53 | 193 | 0.0 | 2.0 | 0.00 | 0.00 | 0.00 | 78 | 1016.1 |
| 20260507153837 | 53 | 185 | 0.0 | 0.0 | 0.00 | 0.00 | 0.00 | 78 | 1015.9 |
| 20260507152859 | 53 | 202 | 1.0 | 2.0 | 0.00 | 0.00 | 0.00 | 76 | 1015.6 |
| 20260507151757 | 53 | 176 | 1.0 | 1.0 | 0.00 | 0.00 | 0.00 | 74 | 1015.8 |
| 20260507151247 | 54 | 256 | 1.0 | 1.0 | 0.00 | 0.00 | 0.00 | 71 | 1015.6 |
| 20260507150737 | 54 | 254 | 1.0 | 1.0 | 0.00 | 0.00 | 0.00 | 71 | 1015.6 |
| 20260507150227 | 54 | 254 | 0.0 | 1.0 | 0.00 | 0.00 | 0.00 | 71 | 1015.5 |
| 20260507145717 | 54 | 254 | 0.0 | 1.0 | 0.00 | 0.00 | 0.00 | 72 | 1015.7 |
| 20260507145245 | 53 | 256 | 0.0 | 1.0 | 0.00 | 0.00 | 0.00 | 72 | 1015.4 |
| 20260507143641 | 54 | 172 | 1.0 | 1.0 | 0.00 | 0.00 | 0.00 | 72 | 1015.2 |
| 20260507143127 | 53 | 272 | 1.0 | 2.0 | 0.00 | 0.00 | 0.00 | 73 | 1015.5 |
| 20260507142107 | 53 | 242 | 0.0 | 1.0 | 0.00 | 0.00 | 0.00 | 74 | 1015.4 |
| 20260507141557 | 54 | 207 | 0.0 | 1.0 | 0.00 | 0.00 | 0.00 | 73 | 1015.3 |
| 20260507140540 | 53 | 226 | 0.0 | 0.0 | 0.00 | 0.00 | 0.00 | 74 | 1015.3 |
| 20260507140027 | 53 | 238 | 0.0 | 1.0 | 0.00 | 0.00 | 0.00 | 73 | 1015.1 |
| 20260507135048 | 53 | 209 | 1.0 | 1.0 | 0.00 | 0.00 | 0.00 | 74 | 1015.2 |
| 20260507134457 | 53 | 236 | 0.0 | 1.0 | 0.00 | 0.00 | 0.00 | 75 | 1015.1 |
| 20260507133437 | 53 | 253 | 1.0 | 2.0 | 0.00 | 0.00 | 0.00 | 75 | 1015.1 |
| 20260507132927 | 53 | 246 | 0.0 | 2.0 | 0.00 | 0.00 | 0.00 | 75 | 1015.2 |
| 20260507131907 | 53 | 187 | 0.0 | 1.0 | 0.00 | 0.00 | 0.00 | 74 | 1015.1 |
| 20260507130847 | 53 | 229 | 1.0 | 2.0 | 0.00 | 0.00 | 0.00 | 73 | 1015.4 |
| 20260507130337 | 53 | 184 | 1.0 | 3.0 | 0.00 | 0.00 | 0.00 | 74 | 1015.0 |
| 20260507125905 | 53 | 154 | 3.0 | 8.0 | 0.00 | 0.00 | 0.00 | 74 | 1015.0 |
| 20260507125317 | 53 | 231 | 0.0 | 1.0 | 0.00 | 0.00 | 0.00 | 75 | 1015.1 |
| 20260507124338 | 53 | 254 | 0.0 | 2.0 | 0.00 | 0.00 | 0.00 | 74 | 1015.0 |
| 20260507123315 | 53 | 246 | 0.0 | 1.0 | 0.00 | 0.00 | 0.00 | 74 | 1014.8 |
| 20260507122217 | 53 | 228 | 1.0 | 1.0 | 0.00 | 0.00 | 0.00 | 74 | 1014.9 |
| 20260507121748 | 53 | 228 | 1.0 | 1.0 | 0.00 | 0.00 | 0.00 | 74 | 1014.8 |
| 20260507121235 | 53 | 216 | 1.0 | 2.0 | 0.00 | 0.00 | 0.00 | 74 | 1015.1 |
| 20260507120646 | 53 | 189 | 1.0 | 3.0 | 0.00 | 0.00 | 0.00 | 75 | 1014.6 |
| 20260507120136 | 53 | 237 | 1.0 | 2.0 | 0.00 | 0.00 | 0.00 | 75 | 1014.7 |
| 20260507115627 | 53 | 215 | 1.0 | 2.0 | 0.00 | 0.00 | 0.00 | 73 | 1014.8 |
| 20260507114056 | 52 | 161 | 2.0 | 3.0 | 0.00 | 0.00 | 0.00 | 76 | 1014.9 |
| 20260507113546 | 51 | 301 | 2.0 | 2.0 | 0.00 | 0.00 | 0.00 | 76 | 1014.9 |
| 20260507112526 | 51 | 224 | 0.0 | 2.0 | 0.00 | 0.00 | 0.00 | 77 | 1014.7 |
| 20260507110015 | 50 | 243 | 2.0 | 3.0 | 0.00 | 0.00 | 0.00 | 78 | 1014.7 |
| 20260507104916 | 50 | 225 | 1.0 | 2.0 | 0.00 | 0.00 | 0.00 | 79 | 1014.7 |
| 20260507104444 | 50 | 217 | 1.0 | 2.0 | 0.00 | 0.00 | 0.00 | 80 | 1014.8 |
| 20260507102841 | 49 | 250 | 2.0 | 2.0 | 0.00 | 0.00 | 0.00 | 81 | 1014.7 |
| 20260507101819 | 49 | 250 | 0.0 | 2.0 | 0.00 | 0.00 | 0.00 | 81 | 1014.5 |
| 20260507101306 | 49 | 238 | 0.0 | 6.0 | 0.00 | 0.00 | 0.00 | 82 | 1014.5 |
| 20260507100246 | 48 | 238 | 0.0 | 2.0 | 0.00 | 0.00 | 0.00 | 84 | 1014.4 |
| 20260507095814 | 48 | 204 | 0.0 | 2.0 | 0.00 | 0.00 | 0.00 | 84 | 1014.4 |
| 20260507095226 | 48 | 236 | 2.0 | 2.0 | 0.00 | 0.00 | 0.00 | 85 | 1014.3 |
| 20260507094716 | 47 | 200 | 0.0 | 1.0 | 0.00 | 0.00 | 0.00 | 86 | 1014.4 |
| 20260507094206 | 47 | 169 | 1.0 | 1.0 | 0.00 | 0.00 | 0.00 | 86 | 1014.3 |
| 20260507093224 | 47 | 233 | 0.0 | 1.0 | 0.00 | 0.00 | 0.00 | 87 | 1014.1 |
| 20260507092636 | 47 | 234 | 0.0 | 1.0 | 0.00 | 0.00 | 0.00 | 87 | 1014.0 |
| 20260507091654 | 47 | 242 | 2.0 | 2.0 | 0.00 | 0.00 | 0.00 | 88 | 1013.9 |
| 20260507091106 | 47 | 224 | 0.0 | 1.0 | 0.00 | 0.00 | 0.00 | 89 | 1013.9 |
| 20260507084006 | 46 | 234 | 0.0 | 2.0 | 0.00 | 0.00 | 0.00 | 90 | 1013.5 |
| 20260507083456 | 47 | 241 | 0.0 | 2.0 | 0.00 | 0.00 | 0.00 | 89 | 1013.4 |
| 20260507082946 | 47 | 236 | 0.0 | 4.0 | 0.00 | 0.00 | 0.00 | 88 | 1013.3 |
| 20260507082436 | 47 | 235 | 1.0 | 2.0 | 0.00 | 0.00 | 0.00 | 87 | 1013.3 |
| 20260507082049 | 47 | 251 | 2.0 | 2.0 | 0.00 | 0.00 | 0.00 | 87 | 1013.1 |
| 20260507080906 | 48 | 243 | 0.0 | 2.0 | 0.00 | 0.00 | 0.00 | 85 | 1013.1 |
| 20260507075846 | 47 | 234 | 0.0 | 2.0 | 0.00 | 0.00 | 0.00 | 85 | 1013.0 |
| 20260507075417 | 47 | 240 | 1.0 | 3.0 | 0.00 | 0.00 | 0.00 | 85 | 1012.9 |
| 20260507072235 | 47 | 227 | 1.0 | 1.0 | 0.00 | 0.00 | 0.00 | 87 | 1013.0 |
| 20260507071216 | 47 | 228 | 0.0 | 3.0 | 0.00 | 0.00 | 0.00 | 87 | 1012.8 |
| 20260507070708 | 47 | 267 | 1.0 | 1.0 | 0.00 | 0.00 | 0.00 | 87 | 1012.6 |
| 20260507065645 | 46 | 244 | 1.0 | 2.0 | 0.00 | 0.00 | 0.00 | 87 | 1012.5 |
| 20260507064154 | 46 | 219 | 1.0 | 2.0 | 0.00 | 0.00 | 0.00 | 87 | 1012.5 |
| 20260507063644 | 46 | 185 | 2.0 | 3.0 | 0.00 | 0.00 | 0.00 | 87 | 1012.4 |
| 20260507062035 | 46 | 232 | 0.0 | 1.0 | 0.00 | 0.00 | 0.00 | 87 | 1012.0 |
| 20260507061604 | 46 | 232 | 1.0 | 1.0 | 0.00 | 0.00 | 0.00 | 88 | 1012.0 |
| 20260507060508 | 46 | 216 | 0.0 | 1.0 | 0.00 | 0.00 | 0.00 | 88 | 1012.2 |
| 20260507055955 | 46 | 242 | 1.0 | 1.0 | 0.00 | 0.00 | 0.00 | 88 | 1012.0 |
| 20260507055449 | 46 | 227 | 0.0 | 1.0 | 0.00 | 0.00 | 0.00 | 88 | 1012.0 |
| 20260507054935 | 45 | 238 | 1.0 | 1.0 | 0.00 | 0.00 | 0.00 | 89 | 1012.1 |
| 20260507054425 | 45 | 252 | 1.0 | 1.0 | 0.00 | 0.00 | 0.00 | 89 | 1011.9 |
| 20260507053408 | 45 | 220 | 0.0 | 1.0 | 0.00 | 0.00 | 0.00 | 90 | 1011.8 |
| 20260507051404 | 45 | 244 | 2.0 | 2.0 | 0.00 | 0.00 | 0.00 | 89 | 1011.3 |
| 20260507050853 | 45 | 220 | 0.0 | 0.0 | 0.00 | 0.00 | 0.00 | 89 | 1011.6 |
| 20260507045246 | 45 | 194 | 1.0 | 1.0 | 0.00 | 0.00 | 0.00 | 89 | 1011.6 |
| 20260507044735 | 45 | 245 | 2.0 | 3.0 | 0.00 | 0.00 | 0.00 | 89 | 1011.5 |
| 20260507043243 | 45 | 233 | 0.0 | 1.0 | 0.00 | 0.00 | 0.00 | 89 | 1011.4 |
| 20260507042223 | 45 | 227 | 0.0 | 1.0 | 0.00 | 0.00 | 0.00 | 89 | 1011.3 |
| 20260507040653 | 45 | 227 | 0.0 | 2.0 | 0.00 | 0.00 | 0.00 | 89 | 1011.3 |
| 20260507035558 | 45 | 250 | 1.0 | 3.0 | 0.00 | 0.00 | 0.00 | 90 | 1011.0 |
| 20260507035045 | 45 | 227 | 0.0 | 2.0 | 0.00 | 0.00 | 0.00 | 90 | 1010.7 |
| 20260507034538 | 45 | 197 | 0.0 | 1.0 | 0.00 | 0.00 | 0.00 | 91 | 1010.9 |
| 20260507031945 | 45 | 247 | 2.0 | 4.0 | 0.00 | 0.00 | 0.00 | 91 | 1010.6 |
| 20260507031003 | 45 | 241 | 1.0 | 1.0 | 0.00 | 0.00 | 0.00 | 91 | 1010.6 |
| 20260507024845 | 45 | 209 | 0.0 | 1.0 | 0.00 | 0.00 | 0.00 | 92 | 1010.6 |
| 20260507024335 | 45 | 218 | 0.0 | 1.0 | 0.00 | 0.00 | 0.00 | 92 | 1010.4 |
| 20260507023315 | 45 | 192 | 1.0 | 2.0 | 0.00 | 0.00 | 0.00 | 92 | 1010.5 |
| 20260507022805 | 45 | 226 | 2.0 | 2.0 | 0.00 | 0.00 | 0.00 | 92 | 1010.4 |
| 20260507021745 | 45 | 233 | 0.0 | 2.0 | 0.00 | 0.00 | 0.00 | 92 | 1010.4 |
| 20260507021235 | 45 | 230 | 1.0 | 2.0 | 0.00 | 0.00 | 0.00 | 92 | 1010.3 |
| 20260507020215 | 45 | 228 | 1.0 | 3.0 | 0.00 | 0.00 | 0.00 | 92 | 1010.5 |
| 20260507015705 | 45 | 226 | 0.0 | 1.0 | 0.00 | 0.00 | 0.00 | 92 | 1010.3 |
| 20260507015155 | 45 | 226 | 0.0 | 0.0 | 0.00 | 0.00 | 0.00 | 92 | 1010.6 |
| 20260507014645 | 45 | 233 | 0.0 | 1.0 | 0.00 | 0.00 | 0.00 | 92 | 1010.4 |
| 20260507014135 | 45 | 229 | 0.0 | 1.0 | 0.00 | 0.00 | 0.00 | 92 | 1010.2 |
| 20260507013153 | 45 | 231 | 0.0 | 0.0 | 0.00 | 0.00 | 0.00 | 92 | 1010.5 |
| 20260507012604 | 45 | 223 | 0.0 | 0.0 | 0.00 | 0.00 | 0.00 | 92 | 1010.3 |
| 20260507012054 | 45 | 241 | 1.0 | 4.0 | 0.00 | 0.00 | 0.00 | 92 | 1010.2 |
| 20260507011034 | 45 | 230 | 0.0 | 4.0 | 0.00 | 0.00 | 0.00 | 92 | 1010.0 |
| 20260507010015 | 45 | 243 | 1.0 | 2.0 | 0.00 | 0.00 | 0.00 | 92 | 1009.9 |
| 20260507005504 | 45 | 225 | 0.0 | 1.0 | 0.00 | 0.00 | 0.00 | 92 | 1010.1 |
| 20260507005033 | 45 | 240 | 0.0 | 1.0 | 0.00 | 0.00 | 0.00 | 92 | 1009.9 |
| 20260507003934 | 44 | 238 | 1.0 | 3.0 | 0.00 | 0.00 | 0.00 | 92 | 1009.8 |
| 20260507003424 | 44 | 305 | 1.0 | 2.0 | 0.00 | 0.00 | 0.00 | 92 | 1009.5 |
| 20260507002404 | 45 | 242 | 1.0 | 2.0 | 0.00 | 0.00 | 0.00 | 92 | 1009.8 |
| 20260507001344 | 45 | 224 | 0.0 | 1.0 | 0.00 | 0.00 | 0.00 | 92 | 1009.8 |
| 20260507000834 | 45 | 263 | 1.0 | 3.0 | 0.00 | 0.00 | 0.00 | 92 | 1009.7 |
| 20260506235306 | 45 | 223 | 1.0 | 1.0 | 0.00 | 0.00 | 0.00 | 91 | 1009.9 |
| 20260506234323 | 45 | 218 | 1.0 | 1.0 | 0.00 | 0.00 | 0.00 | 92 | 1009.8 |
| 20260506232204 | 45 | 242 | 1.0 | 2.0 | 0.00 | 0.00 | 0.00 | 92 | 1009.9 |
| 20260506231147 | 45 | 233 | 0.0 | 1.0 | 0.00 | 0.00 | 0.00 | 92 | 1009.8 |
| 20260506230124 | 46 | 294 | 4.0 | 4.0 | 0.00 | 0.00 | 0.00 | 93 | 1009.7 |
| 20260506225104 | 46 | 263 | 2.0 | 4.0 | 0.00 | 0.00 | 0.00 | 94 | 1009.5 |
| 20260506223534 | 47 | 234 | 1.0 | 2.0 | 0.00 | 0.00 | 0.00 | 93 | 1009.4 |
| 20260506223024 | 47 | 249 | 1.0 | 2.0 | 0.00 | 0.00 | 0.00 | 93 | 1009.4 |
| 20260506221532 | 47 | 310 | 2.0 | 3.0 | 0.00 | 0.00 | 0.00 | 92 | 1009.4 |
| 20260506215453 | 49 | 229 | 0.0 | 4.0 | 0.00 | 0.00 | 1.13 | 93 | 1009.3 |
| 20260506214945 | 49 | 241 | 0.0 | 2.0 | 0.00 | 0.00 | 1.13 | 93 | 1009.1 |
| 20260506214355 | 49 | 237 | 1.0 | 4.0 | 0.00 | 0.00 | 1.13 | 93 | 1009.1 |
| 20260506213844 | 49 | 214 | 0.0 | 2.0 | 0.00 | 0.00 | 1.13 | 94 | 1009.1 |
| 20260506212314 | 49 | 213 | 0.0 | 1.0 | 0.00 | 0.00 | 1.13 | 95 | 1008.8 |
| 20260506210234 | 50 | 272 | 1.0 | 3.0 | 0.00 | 0.00 | 1.13 | 94 | 1008.8 |
| 20260506205214 | 49 | 236 | 1.0 | 3.0 | 0.00 | 0.00 | 1.13 | 94 | 1008.6 |
| 20260506204707 | 50 | 243 | 1.0 | 2.0 | 0.00 | 0.00 | 1.13 | 95 | 1008.5 |
| 20260506204232 | 50 | 213 | 0.0 | 1.0 | 0.00 | 0.00 | 1.13 | 95 | 1008.8 |
| 20260506203134 | 50 | 240 | 1.0 | 2.0 | 0.00 | 0.00 | 1.13 | 95 | 1008.7 |
| 20260506202114 | 50 | 214 | 1.0 | 2.0 | 0.00 | 0.00 | 1.13 | 94 | 1008.8 |
| 20260506201642 | 50 | 238 | 0.0 | 2.0 | 0.00 | 0.00 | 1.13 | 94 | 1008.7 |
| 20260506201217 | 50 | 244 | 0.0 | 1.0 | 0.00 | 0.00 | 1.13 | 94 | 1008.6 |
| 20260506200034 | 50 | 237 | 0.0 | 2.0 | 0.00 | 0.00 | 1.13 | 95 | 1008.6 |
| 20260506193954 | 50 | 234 | 0.0 | 1.0 | 0.00 | 0.00 | 1.13 | 95 | 1008.5 |
| 20260506193522 | 50 | 231 | 0.0 | 0.0 | 0.00 | 0.00 | 1.13 | 95 | 1008.4 |
| 20260506191404 | 51 | 229 | 0.0 | 0.0 | 0.00 | 0.00 | 1.13 | 95 | 1008.3 |
| 20260506190932 | 51 | 228 | 0.0 | 0.0 | 0.00 | 0.00 | 1.13 | 95 | 1008.4 |
| 20260506190344 | 51 | 250 | 1.0 | 1.0 | 0.00 | 0.00 | 1.13 | 95 | 1008.3 |
| 20260506185837 | 50 | 245 | 0.0 | 1.0 | 0.00 | 0.00 | 1.13 | 95 | 1008.0 |
| 20260506185324 | 51 | 230 | 0.0 | 1.0 | 0.00 | 0.00 | 1.13 | 95 | 1007.5 |
| 20260506184304 | 51 | 235 | 0.0 | 1.0 | 0.00 | 0.00 | 1.13 | 95 | 1007.8 |
| 20260506183244 | 51 | 236 | 1.0 | 1.0 | 0.00 | 0.00 | 1.13 | 94 | 1007.7 |
| 20260506182733 | 51 | 206 | 0.0 | 2.0 | 0.00 | 0.00 | 1.13 | 94 | 1007.8 |
| 20260506182306 | 51 | 247 | 1.0 | 1.0 | 0.00 | 0.00 | 1.13 | 94 | 1007.8 |
| 20260506181326 | 51 | 238 | 0.0 | 1.0 | 0.00 | 0.00 | 1.13 | 94 | 1007.6 |
| 20260506180653 | 51 | 273 | 1.0 | 3.0 | 0.00 | 0.00 | 1.13 | 93 | 1007.7 |
| 20260506175123 | 51 | 220 | 0.0 | 1.0 | 0.00 | 0.00 | 1.13 | 93 | 1007.5 |
| 20260506174614 | 52 | 252 | 1.0 | 6.0 | 0.00 | 0.00 | 1.13 | 93 | 1007.2 |
| 20260506173553 | 52 | 247 | 1.0 | 3.0 | 0.00 | 0.00 | 1.13 | 94 | 1007.4 |
| 20260506173043 | 52 | 259 | 1.0 | 2.0 | 0.00 | 0.00 | 1.13 | 94 | 1007.4 |
| 20260506172533 | 52 | 199 | 1.0 | 2.0 | 0.00 | 0.00 | 1.13 | 94 | 1007.6 |
| 20260506171513 | 52 | 229 | 1.0 | 3.0 | 0.00 | 0.00 | 1.13 | 93 | 1007.2 |
| 20260506171003 | 53 | 255 | 1.0 | 3.0 | 0.00 | 0.00 | 1.13 | 93 | 1007.2 |
| 20260506170453 | 53 | 226 | 0.0 | 1.0 | 0.00 | 0.00 | 1.13 | 93 | 1007.5 |
| 20260506165943 | 53 | 278 | 1.0 | 3.0 | 0.00 | 0.00 | 1.13 | 93 | 1007.1 |
| 20260506165001 | 53 | 259 | 2.0 | 2.0 | 0.00 | 0.00 | 1.13 | 92 | 1007.1 |
| 20260506164539 | 53 | 263 | 1.0 | 3.0 | 0.00 | 0.00 | 1.13 | 92 | 1007.1 |
| 20260506164026 | 53 | 241 | 0.0 | 3.0 | 0.00 | 0.00 | 1.13 | 92 | 1007.1 |